| time (UTC) | temp F | wind direction | speed knots | gust knots | rain 1hr in | rain 24hr in | rain mn in | humidity % | barometer mb |
| 20260508165518 | 55 | 227 | 0.9 | 6.1 | 0.00 | 0.02 | 0.02 | 73 | 1013.6 |
| 20260508165014 | 54 | 212 | 0.9 | 2.6 | 0.00 | 0.02 | 0.02 | 73 | 1013.3 |
| 20260508164511 | 54 | 205 | 2.6 | 6.1 | 0.00 | 0.02 | 0.02 | 73 | 1013.5 |
| 20260508164008 | 54 | 223 | 1.7 | 9.6 | 0.00 | 0.02 | 0.02 | 72 | 1013.6 |
| 20260508163505 | 54 | 311 | 3.5 | 7.0 | 0.00 | 0.02 | 0.02 | 72 | 1013.7 |
| 20260508163001 | 54 | 222 | 3.5 | 4.3 | 0.00 | 0.02 | 0.02 | 71 | 1013.6 |
| 20260508162459 | 54 | 238 | 2.6 | 6.1 | 0.00 | 0.02 | 0.02 | 71 | 1013.5 |
| 20260508161955 | 54 | 274 | 0.9 | 4.3 | 0.00 | 0.02 | 0.02 | 71 | 1013.7 |
| 20260508161453 | 54 | 222 | 0.9 | 2.6 | 0.00 | 0.02 | 0.02 | 71 | 1013.7 |
| 20260508160949 | 54 | 290 | 0.9 | 4.3 | 0.00 | 0.02 | 0.02 | 72 | 1013.7 |
| 20260508160449 | 54 | 237 | 1.7 | 4.3 | 0.00 | 0.02 | 0.02 | 72 | 1013.7 |
| 20260508155944 | 54 | 212 | 2.6 | 4.3 | 0.00 | 0.02 | 0.02 | 71 | 1013.6 |
| 20260508155442 | 54 | 196 | 2.6 | 7.0 | 0.00 | 0.02 | 0.02 | 71 | 1013.5 |
| 20260508154938 | 54 | 228 | 5.2 | 7.0 | 0.00 | 0.02 | 0.02 | 72 | 1013.3 |
| 20260508154436 | 54 | 218 | 3.5 | 6.1 | 0.00 | 0.02 | 0.02 | 72 | 1013.5 |
| 20260508153932 | 54 | 239 | 4.3 | 7.0 | 0.00 | 0.02 | 0.02 | 72 | 1013.5 |
| 20260508153430 | 54 | 232 | 1.7 | 6.1 | 0.00 | 0.02 | 0.02 | 72 | 1013.2 |
| 20260508152925 | 54 | 219 | 2.6 | 4.3 | 0.00 | 0.02 | 0.02 | 71 | 1013.5 |
| 20260508152423 | 54 | 224 | 3.5 | 7.0 | 0.00 | 0.02 | 0.02 | 71 | 1013.7 |
| 20260508151919 | 54 | 223 | 2.6 | 5.2 | 0.00 | 0.02 | 0.02 | 71 | 1013.3 |
| 20260508151416 | 54 | 198 | 1.7 | 2.6 | 0.00 | 0.02 | 0.02 | 70 | 1013.6 |
| 20260508150912 | 54 | 236 | 2.6 | 5.2 | 0.00 | 0.02 | 0.02 | 69 | 1013.5 |
| 20260508150408 | 54 | 229 | 2.6 | 4.3 | 0.00 | 0.02 | 0.02 | 70 | 1013.5 |
| 20260508145905 | 54 | 249 | 5.2 | 7.8 | 0.00 | 0.02 | 0.02 | 69 | 1013.6 |
| 20260508145401 | 54 | 235 | 4.3 | 7.0 | 0.00 | 0.02 | 0.02 | 69 | 1013.5 |
| 20260508144858 | 55 | 230 | 4.3 | 7.8 | 0.00 | 0.02 | 0.02 | 68 | 1013.3 |
| 20260508144356 | 55 | 200 | 1.7 | 4.3 | 0.00 | 0.02 | 0.02 | 68 | 1013.1 |
| 20260508143853 | 55 | 259 | 1.7 | 4.3 | 0.00 | 0.02 | 0.02 | 68 | 1013.2 |
| 20260508143351 | 55 | 205 | 0.9 | 2.6 | 0.00 | 0.02 | 0.02 | 68 | 1013.5 |
| 20260508142847 | 55 | 235 | 4.3 | 8.7 | 0.00 | 0.02 | 0.02 | 67 | 1013.5 |
| 20260508142344 | 55 | 239 | 7.0 | 8.7 | 0.00 | 0.02 | 0.02 | 66 | 1013.3 |
| 20260508141840 | 55 | 222 | 4.3 | 7.8 | 0.00 | 0.02 | 0.02 | 66 | 1013.3 |
| 20260508141337 | 55 | 243 | 2.6 | 7.0 | 0.00 | 0.02 | 0.02 | 66 | 1013.6 |
| 20260508140835 | 55 | 236 | 2.6 | 5.2 | 0.00 | 0.02 | 0.02 | 66 | 1013.3 |
| 20260508140331 | 55 | 251 | 3.5 | 6.1 | 0.00 | 0.02 | 0.02 | 67 | 1013.3 |
| 20260508135827 | 55 | 207 | 4.3 | 5.2 | 0.00 | 0.02 | 0.02 | 67 | 1013.5 |
| 20260508135324 | 55 | 221 | 0.9 | 6.1 | 0.00 | 0.02 | 0.02 | 67 | 1013.5 |
| 20260508134820 | 55 | 251 | 3.5 | 7.8 | 0.00 | 0.02 | 0.02 | 68 | 1013.5 |
| 20260508134317 | 54 | 236 | 3.5 | 6.1 | 0.00 | 0.02 | 0.02 | 68 | 1013.7 |
| 20260508133813 | 54 | 223 | 2.6 | 5.2 | 0.00 | 0.02 | 0.02 | 69 | 1013.5 |
| 20260508133312 | 54 | 257 | 2.6 | 7.8 | 0.00 | 0.02 | 0.02 | 69 | 1013.6 |
| 20260508132808 | 53 | 253 | 2.6 | 6.1 | 0.00 | 0.02 | 0.02 | 71 | 1013.7 |
| 20260508132306 | 53 | 224 | 4.3 | 6.1 | 0.00 | 0.02 | 0.02 | 72 | 1013.6 |
| 20260508131756 | 53 | 218 | 2.6 | 5.2 | 0.00 | 0.02 | 0.02 | 73 | 1013.6 |
| 20260508131252 | 52 | 224 | 7.0 | 8.7 | 0.00 | 0.02 | 0.02 | 72 | 1013.6 |
| 20260508130749 | 52 | 212 | 0.9 | 6.1 | 0.00 | 0.02 | 0.02 | 73 | 1013.6 |
| 20260508130246 | 52 | 224 | 6.1 | 6.1 | 0.00 | 0.02 | 0.02 | 73 | 1013.5 |
| 20260508125742 | 52 | 201 | 1.7 | 5.2 | 0.00 | 0.02 | 0.02 | 73 | 1013.6 |
| 20260508125238 | 52 | 223 | 4.3 | 6.1 | 0.00 | 0.02 | 0.02 | 72 | 1013.6 |
| 20260508124737 | 51 | 231 | 2.6 | 6.1 | 0.00 | 0.02 | 0.02 | 72 | 1013.6 |
| 20260508124233 | 51 | 235 | 1.7 | 4.3 | 0.00 | 0.02 | 0.02 | 72 | 1013.6 |
| 20260508123732 | 51 | 245 | 2.6 | 7.0 | 0.00 | 0.02 | 0.02 | 72 | 1013.3 |
| 20260508123229 | 51 | 275 | 3.5 | 5.2 | 0.00 | 0.02 | 0.02 | 72 | 1013.6 |
| 20260508122725 | 51 | 222 | 4.3 | 7.0 | 0.00 | 0.02 | 0.02 | 72 | 1013.6 |
| 20260508122222 | 51 | 217 | 3.5 | 7.0 | 0.00 | 0.02 | 0.02 | 72 | 1013.6 |
| 20260508121720 | 50 | 229 | 5.2 | 7.8 | 0.00 | 0.02 | 0.02 | 73 | 1013.6 |
| 20260508121219 | 50 | 212 | 6.1 | 7.0 | 0.00 | 0.02 | 0.02 | 73 | 1013.3 |
| 20260508120715 | 50 | 229 | 0.9 | 5.2 | 0.00 | 0.02 | 0.02 | 74 | 1013.2 |
| 20260508120213 | 50 | 204 | 2.6 | 7.0 | 0.00 | 0.02 | 0.02 | 73 | 1013.3 |
| 20260508115711 | 49 | 199 | 2.6 | 6.1 | 0.00 | 0.02 | 0.02 | 74 | 1013.3 |
| 20260508115207 | 49 | 211 | 2.6 | 4.3 | 0.00 | 0.02 | 0.02 | 74 | 1013.1 |
| 20260508114704 | 49 | 220 | 4.3 | 6.1 | 0.00 | 0.02 | 0.02 | 74 | 1013.0 |
| 20260508114201 | 49 | 216 | 3.5 | 5.2 | 0.00 | 0.02 | 0.02 | 74 | 1013.0 |
| 20260508113658 | 48 | 222 | 3.5 | 7.0 | 0.00 | 0.02 | 0.02 | 74 | 1013.0 |
| 20260508113156 | 48 | 228 | 4.3 | 5.2 | 0.00 | 0.02 | 0.02 | 75 | 1013.2 |
| 20260508112652 | 48 | 217 | 1.7 | 4.3 | 0.00 | 0.02 | 0.02 | 76 | 1013.0 |
| 20260508112149 | 47 | 223 | 2.6 | 7.8 | 0.00 | 0.02 | 0.02 | 76 | 1012.9 |
| 20260508111645 | 47 | 226 | 2.6 | 5.2 | 0.00 | 0.02 | 0.02 | 77 | 1012.8 |
| 20260508111143 | 47 | 214 | 3.5 | 7.0 | 0.00 | 0.02 | 0.02 | 77 | 1013.0 |
| 20260508110640 | 47 | 222 | 2.6 | 4.3 | 0.00 | 0.02 | 0.02 | 78 | 1013.0 |
| 20260508110137 | 46 | 207 | 2.6 | 5.2 | 0.00 | 0.02 | 0.02 | 78 | 1013.0 |
| 20260508105631 | 46 | 200 | 4.3 | 6.1 | 0.00 | 0.02 | 0.02 | 79 | 1012.9 |
| 20260508105129 | 46 | 232 | 4.3 | 7.0 | 0.00 | 0.02 | 0.02 | 79 | 1013.0 |
| 20260508104627 | 46 | 211 | 2.6 | 6.1 | 0.00 | 0.02 | 0.02 | 80 | 1013.1 |
| 20260508104123 | 46 | 232 | 2.6 | 5.2 | 0.00 | 0.02 | 0.02 | 80 | 1012.9 |
| 20260508103621 | 46 | 213 | 2.6 | 5.2 | 0.00 | 0.02 | 0.02 | 80 | 1013.0 |
| 20260508103118 | 46 | 203 | 2.6 | 7.0 | 0.00 | 0.02 | 0.02 | 81 | 1012.9 |
| 20260508102615 | 46 | 205 | 3.5 | 5.2 | 0.00 | 0.02 | 0.02 | 81 | 1012.6 |
| 20260508102113 | 45 | 237 | 3.5 | 5.2 | 0.00 | 0.02 | 0.02 | 82 | 1012.7 |
| 20260508101610 | 45 | 211 | 2.6 | 5.2 | 0.00 | 0.02 | 0.02 | 82 | 1012.8 |
| 20260508101107 | 45 | 226 | 3.5 | 4.3 | 0.00 | 0.02 | 0.02 | 82 | 1012.6 |
| 20260508100605 | 46 | 212 | 3.5 | 4.3 | 0.00 | 0.02 | 0.02 | 82 | 1012.7 |
| 20260508095559 | 46 | 189 | 2.6 | 4.3 | 0.00 | 0.02 | 0.02 | 83 | 1012.7 |
| 20260508095055 | 45 | 212 | 2.6 | 5.2 | 0.00 | 0.02 | 0.02 | 84 | 1012.5 |
| 20260508094553 | 45 | 205 | 2.6 | 4.3 | 0.00 | 0.02 | 0.02 | 85 | 1012.5 |
| 20260508094049 | 45 | 209 | 1.7 | 2.6 | 0.00 | 0.02 | 0.02 | 86 | 1012.4 |
| 20260508093547 | 45 | 220 | 1.7 | 2.6 | 0.00 | 0.02 | 0.02 | 86 | 1012.7 |
| 20260508093045 | 45 | 202 | 1.7 | 2.6 | 0.00 | 0.02 | 0.02 | 87 | 1012.7 |
| 20260508092541 | 45 | 194 | 2.6 | 4.3 | 0.00 | 0.02 | 0.02 | 88 | 1012.6 |
| 20260508092040 | 45 | 215 | 0.9 | 2.6 | 0.00 | 0.02 | 0.02 | 88 | 1012.6 |
| 20260508091537 | 45 | 204 | 1.7 | 2.6 | 0.00 | 0.02 | 0.02 | 89 | 1012.6 |
| 20260508091034 | 45 | 213 | 1.7 | 2.6 | 0.00 | 0.02 | 0.02 | 89 | 1012.6 |
| 20260508090532 | 45 | 209 | 0.9 | 4.3 | 0.00 | 0.02 | 0.02 | 89 | 1012.7 |
| 20260508090028 | 45 | 196 | 1.7 | 2.6 | 0.00 | 0.02 | 0.02 | 90 | 1012.7 |
| 20260508085525 | 45 | 204 | 1.7 | 2.6 | 0.00 | 0.02 | 0.02 | 90 | 1012.8 |
| 20260508085022 | 45 | 212 | 2.6 | 2.6 | 0.00 | 0.02 | 0.02 | 91 | 1012.9 |
| 20260508084519 | 45 | 214 | 1.7 | 1.7 | 0.00 | 0.02 | 0.02 | 92 | 1012.6 |
| 20260508084016 | 45 | 216 | 1.7 | 1.7 | 0.00 | 0.02 | 0.02 | 92 | 1012.8 |
| 20260508083513 | 45 | 194 | 1.7 | 2.6 | 0.00 | 0.02 | 0.02 | 92 | 1012.9 |
| 20260508083009 | 45 | 199 | 1.7 | 5.2 | 0.00 | 0.02 | 0.02 | 93 | 1012.7 |
| 20260508082505 | 45 | 210 | 3.5 | 4.3 | 0.00 | 0.02 | 0.02 | 93 | 1012.5 |
| 20260508082003 | 45 | 213 | 3.5 | 4.3 | 0.00 | 0.02 | 0.02 | 94 | 1012.8 |
| 20260508081500 | 45 | 174 | 2.6 | 2.6 | 0.00 | 0.02 | 0.02 | 94 | 1012.8 |
| 20260508080955 | 45 | 209 | 1.7 | 1.7 | 0.00 | 0.02 | 0.02 | 94 | 1012.6 |
| 20260508080454 | 45 | 212 | 2.6 | 2.6 | 0.00 | 0.02 | 0.02 | 93 | 1012.6 |
| 20260508075951 | 45 | 191 | 2.6 | 2.6 | 0.00 | 0.02 | 0.02 | 93 | 1012.7 |
| 20260508075448 | 45 | 205 | 0.9 | 1.7 | 0.00 | 0.02 | 0.02 | 93 | 1012.7 |
| 20260508074946 | 46 | 219 | 0.9 | 0.9 | 0.00 | 0.02 | 0.02 | 93 | 1012.8 |
| 20260508074443 | 46 | 223 | 1.7 | 1.7 | 0.00 | 0.02 | 0.02 | 93 | 1013.0 |
| 20260508073939 | 46 | 199 | 2.6 | 2.6 | 0.00 | 0.02 | 0.02 | 92 | 1012.9 |
| 20260508073437 | 46 | 217 | 0.9 | 1.7 | 0.00 | 0.02 | 0.02 | 92 | 1013.1 |
| 20260508072933 | 46 | 209 | 0.0 | 0.9 | 0.00 | 0.02 | 0.02 | 91 | 1013.1 |
| 20260508072424 | 46 | 205 | 0.0 | 0.9 | 0.00 | 0.02 | 0.02 | 91 | 1013.2 |
| 20260508071922 | 47 | 213 | 0.0 | 0.0 | 0.00 | 0.02 | 0.02 | 90 | 1013.3 |
| 20260508071419 | 47 | 199 | 0.0 | 0.9 | 0.00 | 0.02 | 0.02 | 90 | 1013.5 |
| 20260508070917 | 47 | 190 | 0.9 | 1.7 | 0.00 | 0.02 | 0.02 | 90 | 1013.7 |
| 20260508070415 | 47 | 346 | 1.7 | 4.3 | 0.00 | 0.02 | 0.02 | 91 | 1013.6 |
| 20260508065912 | 47 | 356 | 1.7 | 5.2 | 0.00 | 0.02 | 0.02 | 90 | 1014.0 |
| 20260508065405 | 47 | 346 | 0.9 | 2.6 | 0.00 | 0.02 | 0.02 | 90 | 1013.5 |
| 20260508064902 | 47 | 223 | 0.0 | 0.9 | 0.00 | 0.02 | 0.02 | 89 | 1013.2 |
| 20260508064359 | 47 | 210 | 0.0 | 0.0 | 0.00 | 0.02 | 0.02 | 88 | 1013.3 |
| 20260508063857 | 48 | 209 | 0.0 | 0.9 | 0.00 | 0.02 | 0.02 | 88 | 1013.3 |
| 20260508063354 | 48 | 197 | 0.9 | 1.7 | 0.00 | 0.02 | 0.02 | 87 | 1013.5 |
| 20260508062851 | 48 | 195 | 1.7 | 1.7 | 0.00 | 0.02 | 0.02 | 86 | 1013.5 |
| 20260508062349 | 48 | 207 | 0.0 | 0.9 | 0.00 | 0.02 | 0.02 | 85 | 1013.7 |
| 20260508061846 | 48 | 217 | 0.0 | 1.7 | 0.00 | 0.02 | 0.02 | 85 | 1014.1 |
| 20260508061343 | 48 | 225 | 0.0 | 1.7 | 0.00 | 0.02 | 0.02 | 85 | 1014.0 |
| 20260508060839 | 48 | 219 | 1.7 | 2.6 | 0.02 | 0.02 | 0.02 | 83 | 1014.0 |
| 20260508060337 | 48 | 219 | 3.5 | 4.3 | 0.02 | 0.02 | 0.02 | 83 | 1014.0 |
| 20260508055832 | 48 | 212 | 0.9 | 0.9 | 0.00 | 0.02 | 0.02 | 82 | 1014.2 |
| 20260508055330 | 48 | 200 | 0.0 | 0.0 | 0.02 | 0.02 | 0.02 | 82 | 1014.5 |
| 20260508054826 | 48 | 234 | 0.9 | 1.7 | 0.02 | 0.02 | 0.02 | 82 | 1014.4 |
| 20260508054324 | 48 | 247 | 2.6 | 4.3 | 0.00 | 0.02 | 0.02 | 81 | 1014.3 |
| 20260508053821 | 48 | 220 | 2.6 | 2.6 | 0.00 | 0.02 | 0.02 | 82 | 1014.1 |
| 20260508053319 | 48 | 220 | 3.5 | 6.1 | 0.02 | 0.02 | 0.02 | 82 | 1014.4 |
| 20260508052815 | 49 | 202 | 1.7 | 2.6 | 0.05 | 0.01 | 0.01 | 79 | 1014.4 |
| 20260508052313 | 49 | 244 | 4.3 | 8.7 | 0.07 | 0.01 | 0.01 | 77 | 1014.5 |
| 20260508051808 | 49 | 254 | 4.3 | 6.1 | 0.02 | 0.00 | 0.00 | 77 | 1014.5 |
| 20260508051304 | 49 | 256 | 1.7 | 1.7 | 0.00 | 0.00 | 0.00 | 78 | 1014.1 |
| 20260508050801 | 49 | 225 | 0.9 | 0.9 | 0.00 | 0.00 | 0.00 | 76 | 1013.9 |
| 20260508050258 | 49 | 226 | 0.0 | 0.0 | 0.00 | 0.00 | 0.00 | 75 | 1013.6 |
| 20260508045754 | 49 | 231 | 0.0 | 0.9 | 0.00 | 0.00 | 0.00 | 75 | 1013.6 |
| 20260508045251 | 49 | 220 | 0.9 | 4.3 | 0.00 | 0.00 | 0.00 | 75 | 1013.5 |
| 20260508044749 | 49 | 216 | 1.7 | 1.7 | 0.00 | 0.00 | 0.00 | 77 | 1013.2 |
| 20260508044246 | 49 | 223 | 0.9 | 4.3 | 0.00 | 0.00 | 0.00 | 77 | 1013.0 |
| 20260508043741 | 49 | 198 | 2.6 | 4.3 | 0.00 | 0.00 | 0.00 | 76 | 1013.1 |
| 20260508043239 | 49 | 210 | 0.9 | 1.7 | 0.00 | 0.00 | 0.00 | 77 | 1013.2 |
| 20260508042735 | 49 | 218 | 0.9 | 2.6 | 0.00 | 0.00 | 0.00 | 77 | 1013.2 |
| 20260508042233 | 49 | 207 | 1.7 | 1.7 | 0.00 | 0.00 | 0.00 | 77 | 1013.1 |
| 20260508041730 | 49 | 213 | 0.9 | 2.6 | 0.00 | 0.00 | 0.00 | 76 | 1013.3 |
| 20260508041226 | 49 | 200 | 1.7 | 2.6 | 0.00 | 0.00 | 0.00 | 75 | 1013.2 |
| 20260508040723 | 49 | 205 | 1.7 | 1.7 | 0.00 | 0.00 | 0.00 | 74 | 1013.5 |
| 20260508040220 | 49 | 218 | 0.9 | 1.7 | 0.00 | 0.00 | 0.00 | 75 | 1013.5 |
| 20260508035717 | 49 | 187 | 0.9 | 0.9 | 0.00 | 0.00 | 0.00 | 74 | 1013.5 |
| 20260508035215 | 49 | 216 | 0.0 | 0.9 | 0.00 | 0.00 | 0.00 | 74 | 1013.6 |
| 20260508034711 | 49 | 207 | 0.0 | 0.9 | 0.00 | 0.00 | 0.00 | 73 | 1013.6 |
| 20260508034208 | 49 | 214 | 0.0 | 0.0 | 0.00 | 0.00 | 0.00 | 73 | 1013.5 |
| 20260508033705 | 49 | 218 | 0.0 | 0.0 | 0.00 | 0.00 | 0.00 | 72 | 1013.6 |
| 20260508033204 | 49 | 218 | 0.0 | 0.9 | 0.00 | 0.00 | 0.00 | 72 | 1013.5 |
| 20260508032701 | 49 | 212 | 0.0 | 0.9 | 0.00 | 0.00 | 0.00 | 70 | 1013.3 |
| 20260508032158 | 49 | 201 | 0.9 | 1.7 | 0.00 | 0.00 | 0.00 | 69 | 1013.5 |
| 20260508031655 | 50 | 216 | 0.9 | 0.9 | 0.00 | 0.00 | 0.00 | 69 | 1013.5 |
| 20260508031150 | 50 | 198 | 0.9 | 0.9 | 0.00 | 0.00 | 0.00 | 66 | 1013.3 |
| 20260508030647 | 50 | 204 | 0.0 | 0.0 | 0.00 | 0.00 | 0.00 | 66 | 1013.8 |
| 20260508030145 | 51 | 237 | 0.9 | 2.6 | 0.00 | 0.00 | 0.00 | 65 | 1013.5 |
| 20260508025641 | 51 | 217 | 0.0 | 0.0 | 0.00 | 0.00 | 0.00 | 65 | 1014.0 |
| 20260508025138 | 51 | 235 | 0.9 | 1.7 | 0.00 | 0.00 | 0.00 | 64 | 1013.9 |
| 20260508024634 | 51 | 305 | 1.7 | 2.6 | 0.00 | 0.00 | 0.00 | 63 | 1013.8 |
| 20260508024132 | 51 | 237 | 0.0 | 1.7 | 0.00 | 0.00 | 0.00 | 63 | 1013.8 |
| 20260508023628 | 51 | 304 | 1.7 | 1.7 | 0.00 | 0.00 | 0.00 | 63 | 1013.8 |
| 20260508023126 | 51 | 221 | 0.0 | 0.9 | 0.00 | 0.00 | 0.00 | 62 | 1013.5 |
| 20260508022621 | 51 | 217 | 0.0 | 0.9 | 0.00 | 0.00 | 0.00 | 61 | 1013.5 |
| 20260508022119 | 51 | 218 | 0.9 | 0.9 | 0.00 | 0.00 | 0.00 | 62 | 1013.6 |
| 20260508021614 | 51 | 217 | 0.0 | 0.9 | 0.00 | 0.00 | 0.00 | 61 | 1013.3 |
| 20260508021110 | 51 | 217 | 0.0 | 0.0 | 0.00 | 0.00 | 0.00 | 61 | 1013.3 |
| 20260508020608 | 51 | 214 | 0.0 | 0.0 | 0.00 | 0.00 | 0.00 | 61 | 1013.3 |
| 20260508020105 | 51 | 215 | 0.0 | 0.0 | 0.00 | 0.00 | 0.00 | 60 | 1013.3 |
| 20260508015603 | 51 | 213 | 0.0 | 0.9 | 0.00 | 0.00 | 0.00 | 60 | 1013.3 |
| 20260508015059 | 52 | 217 | 0.0 | 0.0 | 0.00 | 0.00 | 0.00 | 59 | 1013.1 |
| 20260508014555 | 52 | 217 | 0.0 | 0.0 | 0.00 | 0.00 | 0.00 | 59 | 1013.3 |
| 20260508014052 | 52 | 218 | 0.0 | 0.9 | 0.00 | 0.00 | 0.00 | 58 | 1013.5 |
| 20260508013548 | 52 | 228 | 0.9 | 1.7 | 0.00 | 0.00 | 0.00 | 58 | 1013.5 |
| 20260508013045 | 52 | 225 | 1.7 | 1.7 | 0.00 | 0.00 | 0.00 | 57 | 1013.1 |
| 20260508012543 | 53 | 209 | 0.9 | 1.7 | 0.00 | 0.00 | 0.00 | 57 | 1012.9 |
| 20260508012040 | 53 | 209 | 0.9 | 1.7 | 0.00 | 0.00 | 0.00 | 56 | 1013.2 |
| 20260508011538 | 53 | 266 | 3.5 | 5.2 | 0.00 | 0.00 | 0.00 | 55 | 1013.1 |
| 20260508011035 | 53 | 235 | 4.3 | 7.0 | 0.00 | 0.00 | 0.00 | 54 | 1013.5 |
| 20260508010532 | 53 | 236 | 2.6 | 6.1 | 0.00 | 0.00 | 0.00 | 53 | 1013.2 |
| 20260508010030 | 54 | 223 | 0.9 | 1.7 | 0.00 | 0.00 | 0.00 | 53 | 1013.0 |
| 20260508005526 | 54 | 224 | 2.6 | 7.0 | 0.00 | 0.00 | 0.00 | 52 | 1013.3 |
| 20260508005023 | 54 | 319 | 1.7 | 11.3 | 0.00 | 0.00 | 0.00 | 51 | 1013.2 |
| 20260508004519 | 54 | 326 | 5.2 | 7.0 | 0.00 | 0.00 | 0.00 | 49 | 1013.2 |
| 20260508004015 | 54 | 209 | 4.3 | 7.0 | 0.00 | 0.00 | 0.00 | 50 | 1013.1 |
| 20260508003512 | 54 | 228 | 1.7 | 2.6 | 0.00 | 0.00 | 0.00 | 51 | 1012.9 |
| 20260508003010 | 54 | 222 | 1.7 | 1.7 | 0.00 | 0.00 | 0.00 | 52 | 1012.7 |
| 20260508002505 | 54 | 231 | 0.9 | 1.7 | 0.00 | 0.00 | 0.00 | 51 | 1012.7 |
| 20260508002003 | 54 | 222 | 1.7 | 2.6 | 0.00 | 0.00 | 0.00 | 51 | 1012.6 |
| 20260508001458 | 54 | 218 | 0.9 | 1.7 | 0.00 | 0.00 | 0.00 | 51 | 1012.5 |
| 20260508000955 | 54 | 237 | 1.7 | 2.6 | 0.00 | 0.00 | 0.00 | 50 | 1012.4 |
| 20260508000451 | 54 | 223 | 0.9 | 1.7 | 0.00 | 0.00 | 0.00 | 49 | 1012.6 |
| 20260507235948 | 55 | 225 | 0.9 | 1.7 | 0.00 | 0.00 | 0.00 | 48 | 1012.5 |
| 20260507235445 | 55 | 229 | 0.9 | 2.6 | 0.00 | 0.00 | 0.00 | 49 | 1012.3 |
| 20260507234943 | 55 | 212 | 1.7 | 4.3 | 0.00 | 0.00 | 0.00 | 48 | 1012.6 |
| 20260507234439 | 55 | 254 | 1.7 | 2.6 | 0.00 | 0.00 | 0.00 | 47 | 1012.3 |
| 20260507233935 | 55 | 216 | 0.9 | 0.9 | 0.00 | 0.00 | 0.00 | 47 | 1012.4 |
| 20260507233432 | 55 | 262 | 1.7 | 1.7 | 0.00 | 0.00 | 0.00 | 46 | 1012.5 |
| 20260507232931 | 55 | 245 | 2.6 | 5.2 | 0.00 | 0.00 | 0.00 | 46 | 1012.2 |
| 20260507232427 | 56 | 352 | 3.5 | 6.1 | 0.00 | 0.00 | 0.00 | 45 | 1012.2 |
| 20260507231924 | 56 | 224 | 0.9 | 1.7 | 0.00 | 0.00 | 0.00 | 45 | 1012.3 |
| 20260507231420 | 56 | 272 | 2.6 | 5.2 | 0.00 | 0.00 | 0.00 | 44 | 1012.2 |
| 20260507230918 | 57 | 232 | 3.5 | 5.2 | 0.00 | 0.00 | 0.00 | 45 | 1012.4 |
| 20260507230415 | 56 | 313 | 2.6 | 6.1 | 0.00 | 0.00 | 0.00 | 45 | 1012.3 |
| 20260507225914 | 57 | 250 | 1.7 | 5.2 | 0.00 | 0.00 | 0.00 | 46 | 1012.4 |
| 20260507225411 | 57 | 291 | 2.6 | 4.3 | 0.00 | 0.00 | 0.00 | 47 | 1012.4 |
| 20260507224907 | 56 | 196 | 1.7 | 5.2 | 0.00 | 0.00 | 0.00 | 46 | 1012.6 |
| 20260507224403 | 57 | 257 | 2.6 | 4.3 | 0.00 | 0.00 | 0.00 | 45 | 1012.4 |
| 20260507223900 | 58 | 251 | 5.2 | 7.8 | 0.00 | 0.00 | 0.00 | 43 | 1012.6 |
| 20260507223350 | 58 | 253 | 2.6 | 7.0 | 0.00 | 0.00 | 0.00 | 45 | 1012.4 |
| 20260507222848 | 58 | 217 | 4.3 | 7.0 | 0.00 | 0.00 | 0.00 | 44 | 1012.6 |
| 20260507222343 | 57 | 236 | 2.6 | 4.3 | 0.00 | 0.00 | 0.00 | 46 | 1012.6 |
| 20260507221840 | 57 | 296 | 3.5 | 5.2 | 0.00 | 0.00 | 0.00 | 46 | 1012.8 |
| 20260507221337 | 56 | 330 | 2.6 | 6.1 | 0.00 | 0.00 | 0.00 | 45 | 1012.8 |
| 20260507220832 | 56 | 336 | 6.1 | 7.0 | 0.00 | 0.00 | 0.00 | 46 | 1012.5 |
| 20260507220331 | 56 | 309 | 3.5 | 5.2 | 0.00 | 0.00 | 0.00 | 45 | 1012.7 |
| 20260507215827 | 56 | 251 | 2.6 | 5.2 | 0.00 | 0.00 | 0.00 | 46 | 1012.7 |
| 20260507215325 | 56 | 269 | 6.1 | 11.3 | 0.00 | 0.00 | 0.00 | 44 | 1012.6 |
| 20260507214822 | 57 | 333 | 5.2 | 11.3 | 0.00 | 0.00 | 0.00 | 45 | 1012.5 |
| 20260507214319 | 58 | 342 | 5.2 | 7.8 | 0.00 | 0.00 | 0.00 | 43 | 1012.4 |
| 20260507213814 | 57 | 281 | 2.6 | 9.6 | 0.00 | 0.00 | 0.00 | 44 | 1012.5 |
| 20260507213312 | 57 | 292 | 2.6 | 5.2 | 0.00 | 0.00 | 0.00 | 46 | 1012.5 |
| 20260507212808 | 57 | 253 | 3.5 | 8.7 | 0.00 | 0.00 | 0.00 | 46 | 1012.3 |
| 20260507212307 | 56 | 339 | 4.3 | 6.1 | 0.00 | 0.00 | 0.00 | 48 | 1012.4 |
| 20260507211801 | 55 | 236 | 3.5 | 7.8 | 0.00 | 0.00 | 0.00 | 48 | 1012.5 |
| 20260507211258 | 55 | 245 | 3.5 | 8.7 | 0.00 | 0.00 | 0.00 | 48 | 1012.5 |
| 20260507210754 | 55 | 309 | 4.3 | 6.1 | 0.00 | 0.00 | 0.00 | 48 | 1012.4 |
| 20260507210251 | 55 | 342 | 6.1 | 12.2 | 0.00 | 0.00 | 0.00 | 47 | 1012.5 |
| 20260507205748 | 56 | 222 | 2.6 | 7.8 | 0.00 | 0.00 | 0.00 | 47 | 1012.6 |
| 20260507205245 | 55 | 317 | 7.0 | 12.2 | 0.00 | 0.00 | 0.00 | 47 | 1012.6 |
| 20260507204740 | 56 | 229 | 2.6 | 5.2 | 0.00 | 0.00 | 0.00 | 46 | 1012.3 |
| 20260507204239 | 57 | 324 | 5.2 | 6.1 | 0.00 | 0.00 | 0.00 | 46 | 1012.5 |
| 20260507203736 | 56 | 280 | 2.6 | 6.1 | 0.00 | 0.00 | 0.00 | 48 | 1012.5 |
| 20260507203233 | 56 | 301 | 4.3 | 13.9 | 0.00 | 0.00 | 0.00 | 48 | 1012.4 |
| 20260507202730 | 56 | 330 | 4.3 | 6.1 | 0.00 | 0.00 | 0.00 | 46 | 1012.4 |
| 20260507202226 | 56 | 9 | 6.1 | 7.8 | 0.00 | 0.00 | 0.00 | 45 | 1012.6 |
| 20260507201720 | 56 | 308 | 2.6 | 7.8 | 0.00 | 0.00 | 0.00 | 47 | 1012.5 |
| 20260507201218 | 57 | 312 | 7.0 | 11.3 | 0.00 | 0.00 | 0.00 | 45 | 1012.7 |
| 20260507200708 | 56 | 355 | 6.1 | 9.6 | 0.00 | 0.00 | 0.00 | 47 | 1012.4 |
| 20260507200205 | 56 | 305 | 9.6 | 13.9 | 0.00 | 0.00 | 0.00 | 44 | 1012.5 |
| 20260507195701 | 56 | 231 | 4.3 | 7.8 | 0.00 | 0.00 | 0.00 | 45 | 1012.2 |
| 20260507195158 | 57 | 349 | 9.6 | 11.3 | 0.00 | 0.00 | 0.00 | 46 | 1012.4 |
| 20260507194655 | 55 | 340 | 8.7 | 12.2 | 0.00 | 0.00 | 0.00 | 48 | 1012.5 |
| 20260507194151 | 55 | 5 | 2.6 | 12.2 | 0.00 | 0.00 | 0.00 | 49 | 1012.6 |
| 20260507193647 | 55 | 343 | 3.5 | 12.2 | 0.00 | 0.00 | 0.00 | 50 | 1012.8 |
| 20260507193144 | 56 | 304 | 4.3 | 8.7 | 0.00 | 0.00 | 0.00 | 48 | 1012.7 |
| 20260507192640 | 56 | 333 | 8.7 | 15.6 | 0.00 | 0.00 | 0.00 | 48 | 1012.8 |
| 20260507192138 | 56 | 337 | 7.0 | 7.8 | 0.00 | 0.00 | 0.00 | 49 | 1012.8 |
| 20260507191633 | 55 | 320 | 2.6 | 7.8 | 0.00 | 0.00 | 0.00 | 49 | 1012.7 |
| 20260507191131 | 55 | 306 | 5.2 | 11.3 | 0.00 | 0.00 | 0.00 | 50 | 1012.8 |
| 20260507190628 | 56 | 298 | 13.0 | 17.4 | 0.00 | 0.00 | 0.00 | 48 | 1013.1 |
| 20260507190127 | 55 | 337 | 3.5 | 8.7 | 0.00 | 0.00 | 0.00 | 51 | 1013.0 |
| 20260507185625 | 55 | 33 | 4.3 | 7.0 | 0.00 | 0.00 | 0.00 | 50 | 1013.0 |
| 20260507185121 | 54 | 307 | 10.4 | 15.6 | 0.00 | 0.00 | 0.00 | 50 | 1013.2 |
| 20260507184619 | 55 | 295 | 2.6 | 5.2 | 0.00 | 0.00 | 0.00 | 51 | 1013.0 |
| 20260507184117 | 55 | 331 | 2.6 | 14.8 | 0.00 | 0.00 | 0.00 | 53 | 1013.2 |
| 20260507183613 | 55 | 313 | 7.0 | 13.0 | 0.00 | 0.00 | 0.00 | 51 | 1013.1 |
| 20260507183109 | 55 | 280 | 6.1 | 8.7 | 0.00 | 0.00 | 0.00 | 51 | 1013.2 |
| 20260507182606 | 55 | 343 | 6.1 | 9.6 | 0.00 | 0.00 | 0.00 | 49 | 1013.2 |
| 20260507182102 | 55 | 279 | 2.6 | 8.7 | 0.00 | 0.00 | 0.00 | 48 | 1013.1 |
| 20260507181559 | 55 | 229 | 0.9 | 6.1 | 0.00 | 0.00 | 0.00 | 50 | 1013.0 |
| 20260507181055 | 54 | 250 | 3.5 | 11.3 | 0.00 | 0.00 | 0.00 | 55 | 1013.3 |
| 20260507180551 | 55 | 216 | 6.1 | 11.3 | 0.00 | 0.00 | 0.00 | 52 | 1013.5 |
| 20260507180049 | 54 | 347 | 9.6 | 11.3 | 0.00 | 0.00 | 0.00 | 53 | 1013.1 |
| 20260507175545 | 54 | 249 | 4.3 | 9.6 | 0.00 | 0.00 | 0.00 | 55 | 1013.6 |
| 20260507175042 | 55 | 2 | 7.0 | 8.7 | 0.00 | 0.00 | 0.00 | 53 | 1013.5 |
| 20260507174539 | 53 | 258 | 4.3 | 11.3 | 0.00 | 0.00 | 0.00 | 56 | 1013.5 |
| 20260507174037 | 54 | 343 | 3.5 | 7.8 | 0.00 | 0.00 | 0.00 | 57 | 1013.5 |
| 20260507173534 | 53 | 310 | 5.2 | 11.3 | 0.00 | 0.00 | 0.00 | 56 | 1013.8 |
| 20260507173031 | 54 | 252 | 2.6 | 8.7 | 0.00 | 0.00 | 0.00 | 56 | 1013.6 |
| 20260507172527 | 54 | 264 | 6.1 | 12.2 | 0.00 | 0.00 | 0.00 | 54 | 1013.6 |
| 20260507172024 | 53 | 257 | 2.6 | 7.0 | 0.00 | 0.00 | 0.00 | 56 | 1013.8 |
| 20260507171519 | 53 | 300 | 5.2 | 12.2 | 0.00 | 0.00 | 0.00 | 57 | 1013.9 |
| 20260507171017 | 53 | 230 | 4.3 | 6.1 | 0.00 | 0.00 | 0.00 | 57 | 1014.0 |
| 20260507170513 | 53 | 296 | 3.5 | 5.2 | 0.00 | 0.00 | 0.00 | 56 | 1014.0 |
| 20260507170010 | 54 | 290 | 10.4 | 13.0 | 0.00 | 0.00 | 0.00 | 55 | 1014.0 |